Regional Weather Roundup
Issued by NWS Wakefield, VA

Home | Current Version | Previous Version | Graphics & Text | Print | Product List | Glossary On
Versions: 1 2 3 4 5 6 7 8 9 10 11 12 13 14 15 16 17 18 19 20 21 22 23 24 25 26 27 28
000
ASUS41 KAKQ 270515
RWRAKQ

REGIONAL WEATHER ROUNDUP
NATIONAL WEATHER SERVICE WAKEFIELD VA
100 AM EDT THU APR 27 2017

Note: "fair" indicates few or no clouds below 12,000 feet with no
significant weather and/or obstructions to visibility. * = Denotes
station may not report precipitation (e.g., rain,snow,etc.),
thunder or fog.

VAZ042-051-052>054-056-270600-
NORTHERN VIRGINIA

CITY           SKY/WX    TMP DP  RH WIND       PRES   REMARKS
WASH NATIONAL  PTCLDY    61  58  90 CALM      29.85S
DULLES         CLEAR     59  56  89 E5        29.84S
FORT BELVOIR   CLEAR     57  55  94 CALM      29.84S
QUANTICO       CLEAR     62  60  93 SE5       29.84S
FREDERICKSBRG* CLEAR     59  59 100 CALM      29.82S
STAFFORD*      CLEAR     57  57 100 CALM      29.87S
WARRENTON      PTCLDY    58  55  89 CALM      29.83R
CULPEPER*      MOCLDY    59  59 100 CALM      29.84S
MANASSAS*        N/A     58  56  93 CALM      29.84S
LEESBURG*      CLEAR     61  61 100 SE3       29.85S
WINCHESTER     CLEAR     55  54  94 CALM      29.81S
FRONT ROYAL*   CLEAR     59  57  94 W3        29.80S
LURAY*         CLEAR     57  57 100 CALM      29.81S
$$

VAZ048-049-060>072-079>083-270600-
CENTRAL AND SOUTH CENTRAL VIRGINIA

CITY           SKY/WX    TMP DP  RH WIND       PRES   REMARKS
RICHMOND       CLEAR     61  60  97 SE5       29.83S
CHESTERFIELD*  FAIR     N/A N/A N/A CALM      29.84R
PETERSBURG*    FOG       56  55  97 CALM      29.84R VSB 1
HANOVER        CLEAR     59  56  89 CALM      29.84S
TAPPAHANNOCK*  CLEAR     58  58 100 CALM      29.84F
QUINTON*       FAIR      60  60 100 MISG      29.83S
CHARLOTTSVILLE CLEAR     63  60  90 CALM      29.81S
GORDONSVILLE*  CLEAR     58  58 100 CALM      29.82R
ORANGE*        CLEAR     57  55  94 CALM      29.82S
LOUISA*        CLEAR     64  63  94 SE5       29.81S
BUMPASS*       FAIR      61  60  99 S6        29.82S
FARMVILLE*     CLEAR     64  64 100 CALM      29.81S
CREWE*         FAIR      59  59 100 CALM      29.82F
FORT PICKETT*  FAIR     N/A N/A N/A CALM      29.83R
CHASE CITY*    FAIR      61  59  94 CALM      29.83S
CLARKSVILLE*   FAIR      61  61 100 CALM      29.83S
SOUTH HILL*    CLEAR     61  61 100 CALM      29.89R
LAWRENCEVILLE* FAIR      62  61  97 CALM      29.83S
EMPORIA*         N/A     61  61 100 SE3       29.85S
$$

VAZ088>098-270600-
SOUTHEAST VIRGINIA

CITY           SKY/WX    TMP DP  RH WIND       PRES   REMARKS
NORFOLK        CLEAR     64  59  83 S5        29.84S
VIRGINIA BEACH CLEAR     62  59  90 SE5       29.84S
NORFOLK NAVAL  PTCLDY    64  60  87 S6        29.86R
WEST POINT*    CLEAR     59  58  96 CALM      29.85S
SALUDA*        FAIR      59  59  99 CALM      29.84S
NEWPORT NEWS   CLEAR     60  58  92 CALM      29.84S
LANGLEY AFB    CLEAR     63  60  91 S5        29.84S
FORT EUSTIS    NOT AVBL
WILLIAMSBURG*  CLEAR     64  63  94 CALM      29.85S
HR EXEC AP*    FAIR      59  55  88 S5        29.83S
FRANKLIN*      CLEAR     63  61  94 CALM      29.85S
US460-WAKEFLD  CLEAR     62  61  96 CALM      29.84S
$$

VAZ020-022-025-037-045-270600-
WEST CENTRAL AND SOUTHWEST VIRGINIA

CITY           SKY/WX    TMP DP  RH WIND       PRES   REMARKS
STAUNTON*      CLEAR     58  56  92 CALM      29.84S
WAYNESBORO*    CLEAR     61  60  96 CALM      29.83F
HOT SPRINGS VA CLEAR     59  55  88 S10       29.91S
LYNCHBURG      CLEAR     60  60 100 CALM      29.83F
DANVILLE       CLEAR     60  60 100 CALM      29.82S
SOUTH BOSTON*  FAIR      60  59  96 CALM      29.82S
MARTINSVILLE     N/A     57  56  97 CALM      29.85S FOG
ROANOKE        CLEAR     65  60  84 CALM      29.84S
BLACKSBURG     CLEAR     59  56  90 CALM      29.88F
DUBLIN*        CLEAR     65  55  71 S3        29.86S
MARION*        CLEAR     65  57  77 CALM      29.86F
HILLSVILLE*    CLEAR     63  58  85 S3        29.86S
RICHLANDS*     FAIR      66  53  63 SE5       29.80F
WISE*          CLEAR     68  52  56 S12G20    29.80R
ABINGDON*      CLEAR     67  55  64 E3        29.80S
$$

MDZ021>025-VAZ099-100-270600-
SOUTHERN MARYLAND AND THE DELMARVA PENINSULA

CITY           SKY/WX    TMP DP  RH WIND       PRES   REMARKS
PATUXENT RIVER CLEAR     58  58 100 SE3       29.85S
BAY BRIDGE APT CLEAR     57  57 100 SE3       29.85S FOG
LEONARDTOWN    CLEAR     57  55  94 CALM      29.86S
DOVER          CLOUDY    61  61 100 CALM      29.85R
GEORGETOWN     FOG       60  58  92 S3        29.87R VSB 1/4
EASTON         CLEAR     58  56  94 SE5       29.89S
CAMBRIDGE      FOG       55  55 100 SE3       29.86R VSB 3/4
SALISBURY      FOG       55  55 100 SE3       29.86S VSB 1/4
OCEAN CITY     FOG       50  49  96 CALM      29.87S VSB 1/2
WALLOPS ISLAND CLEAR     57  57 100 S6        29.87S
ACCOMACK*      CLEAR     58  53  81 SE5       29.86S
$$

NCZ012>017-030>032-270600-
NORTH CENTRAL AND EASTERN NORTH CAROLINA

CITY           SKY/WX    TMP DP  RH WIND       PRES   REMARKS
ROANOKE RAPIDS FAIR      64  63  94 S5        29.84S
RALEIGH        CLEAR     68  64  87 S6        29.84R
ELIZABETH CITY PTCLDY    66  65  96 S5        29.86S
AHOSKIE*         N/A     64  63  96 S3        29.85S
EDENTON*       MOCLDY    69  65  86 S3        29.88R
CURRITUCK*     CLEAR     66  66 100 CALM      29.87R
KILL DEVIL HLS CLEAR     67  67  98 CALM      29.86S
MANTEO         CLEAR     67  65  91 SW10      29.87S
CAPE HATTERAS  CLEAR     71  66  84 SW9       29.89S HAZE
TARBORO*       NOT AVBL
GOLDSBORO      CLEAR     68  67  94 S6        29.84S
WASHINGTON     CLEAR     66  64  94 S3        29.87R
GREENVILLE     CLEAR     68  64  88 SW7       29.88S
NEW BERN       CLEAR     66  65  96 S7        29.89R
WILMINGTON     CLEAR     69  62  78 SW9       29.89R
$$

VAZ048-270600-
ELSEWHERE

CITY           SKY/WX    TMP DP  RH WIND       PRES   REMARKS
HARRISBURG PA  PTCLDY    57  56  96 E7        29.83S
BALTIMORE      PTCLDY    56  56 100 CALM      29.85R
ANNAPOLIS      CLEAR     59  58  96 CALM      29.84S FOG
ANDREWS AFB    PTCLDY    57  56  95 SE3       29.84S
PHILADELPHIA   CLOUDY    62  56  80 CALM      29.86R
HENDERSON NC   CLEAR     64  60  87 S5        29.84S
GREENSBORO     CLEAR     64  62  93 S6        29.83R
ROCKY MOUNT    CLEAR     66  64  93 S3        29.84S
$$

VAZ100-270600-
MARINE

STATION/POSITION TIME  TEMP    WIND        PRES    WAVE   SWELL
                       AIR SEA DIR/SP/G            HT/PER HT/PER
                 (UTC) (F)     (DEG/KT/KT) (MB)    (FT/S) (FT/S)
CAPE MAY NJ      0448   57 54  170/  4/  6 1010.9S
LEWES DE         0448   59 56  170/  4/  4 1010.9F
15NM E FENWICK I 0450   52 51  190/  2/  4 1012.0S   5/10   5/10
OCEAN-CITY-INLET 0448   53 54  220/  2/  2 1011.8F
WACHAPREAGUE VA  0448   58 62  120/  3/  4 1010.8S
THOMAS POINT MD  0500   58 57  140/  3/  3   N/A
GOOSES REEF MD   0500   59 53  130/  4/  4 1011.4    0
COVE POINT MD    0448   59     180/  6/  6 1011.3S
SOLOMONS ISLAND  0442   59 60  130/  5/  5   N/A
BISHOPS HEAD MD  0448   61 62  150/  9/ 11 1011.2S
PINEY POINT MD   0448          150/  8/  9   N/A
POTOMAC MD       0500   60 60  150/  8/ 10 1009.8    1/ 2
CAMBRIDGE MD     0442   58 62                N/A
LEWISETTA VA     0448   61 62  140/  4/  5 1010.3F
RAPPAHANNOCK LGT 0448          130/  8/  8 1011.2F
STINGRAY PT      0450   62     170/  6/  8 1010.5F
YORK RVR RNG VA  0448   63     160/ 11/ 11 1009.8S
YORKTOWN VA      0448   63 63  160/  3/  4 1010.1S
JAMESTOWN VA     0500   65 67  140/  8/ 10   N/A     0
DOMINION TERM VA 0448   65     150/  4/  4 1010.6R
KIPTOPEKE VA     0448      62  150/  8/  9   N/A
CHES BAY BRIDGE  0448   63 61  180/  7/  8 1010.5R
CAPE HENRY VA    0448   62     150/  8/  9   N/A
WILLOUBY STN VA  0448   67     170/ 10/ 10 1011.4R
S CRANEY ISL VA  0448   65     160/  5/  5 1010.4R
CAPE HENRY BUOY  0442      56                N/A     3/11   2/11
1ST LANDING BUOY 0500   62 60              1010.9    1/ 4
CAPE CHARLES BUO 0451      56                N/A     3/11   2/11
64NM E OF VA BCH 0450   58 56  170/  6/  6 1012.1F   5/ 9   5/ 9
DUCK PIER NC     0448   68 60  190/  9/ 11 1010.8S
44100 DUCK FRF   0435      57                N/A     4/10   2/12
44056 DUCK FRF   0430      61                N/A     4/10   2/11
OREGON INLET NC  0442   67 68  180/  8/ 10 1011.4F
HATTERAS NC      0448   71 69  210/  8/ 11 1011.7F
DIAMOND SHLS NC  0450   76 76  210/ 17/ 21 1012.0F   6/ 9   5/ 9
CAPE LOOKOUT NC  0500   71     220/  8/ 11 1011.9R
$$




USA.gov is the U.S. government's official web portal to all federal, state and local government web resources and services.